sat.trackr.live / text

‹ back to catalog

NEOSSAT

NORAD 39089 · 2013-009D

PAYLOAD ACTIVE UNKNOWN

§ Identity

Operator
Country
CA
Launch date
2013-02-25
Launch site
SRILR
Launch vehicle
Mass (kg)
RCS (m²)
0.38

Purposes: science

External: N2YO · Heavens-Above · Gunter

§ Orbital elements

Epoch: 2026-05-25T01:45:53.633952Z

Period
100.29 min
Inclination
98.4174°
Eccentricity
0.0010174
Mean motion
14.35817119 rev/d
Perigee alt
765.1 km
Apogee alt
779.6 km
Semi-major
7,150.5 km
B*
5.7220e-5
RAAN
325.6567°
Arg perigee
320.5601°
Mean anomaly
39.4844°
Rev number
69,342

§ Raw data

NEOSSAT1 39089U 13009D   26145.07353743  .00000123  00000+0  57220-4 0  99972 39089  98.4174 325.6567 0010174 320.5601  39.4844 14.35817119693424

JSON: /api/v1/satellites/39089 · /tle

For live sub-satellite position, see the globe view (requires WebGL).

§ Visibility from observer

Set your observer location to see the next 7 days of passes ≥ 10°. The values pass through the URL so the page stays shareable.

No JS? Fill the form by hand. The geolocation button needs JavaScript.